User: anonymous
Location: Darlington Observatory
(36.4817°N, 105.8156°W)
Time: 21:38:20
(UTC-06:00)
Language:

MOS 1 - Orbit

View from above orbital plane
View from above orbital plane
View from above satellite
View from above satellite

Ground track
Ground track

The orbit data is extracted from the following two-line orbital elements,

1 17527U 87018A   14259.91979287 -.00000136  00000-0 -58755-4 0  6217
2 17527 099.2228 242.2019 0008834 167.7170 221.4562 14.02294144408698
Epoch (UTC): 16 September 2014 22:04:30
Eccentricity: 0.0008834
inclination: 99.2228°
perigee height: 879 km
apogee height: 892 km
right ascension of ascending node: 242.2019°
argument of perigee: 167.7170°
revolutions per day: 14.02294144
mean anomaly at epoch: 221.4562°
orbit number at epoch: 40869

The dashed part of the orbit path shows where the satellite is in the earth's shadow,  

DLR